TimeEDT,TemperatureF,Dew PointF,Humidity,Sea Level PressureIn,VisibilityMPH,Wind Direction,Wind SpeedMPH,Gust SpeedMPH,PrecipitationIn,Events,Conditions,WindDirDegrees,DateUTC
12:54 AM,57.0,54.0,89,29.66,7.0,Calm,Calm,-,N/A,,Mostly Cloudy,0,2013-11-02 04:54:00
1:54 AM,57.0,55.0,93,29.67,7.0,Calm,Calm,-,N/A,,Mostly Cloudy,0,2013-11-02 05:54:00
2:45 AM,59.0,51.8,77,29.65,10.0,North,8.1,-,N/A,,Mostly Cloudy,10,2013-11-02 06:45:00
2:54 AM,59.0,51.1,75,29.65,10.0,North,10.4,-,N/A,,Mostly Cloudy,10,2013-11-02 06:54:00
3:54 AM,57.0,48.0,72,29.66,10.0,NE,3.5,-,N/A,,Mostly Cloudy,40,2013-11-02 07:54:00
4:54 AM,55.9,46.9,72,29.67,10.0,Calm,Calm,-,N/A,,Mostly Cloudy,0,2013-11-02 08:54:00
5:54 AM,57.0,48.0,72,29.67,10.0,Calm,Calm,-,N/A,,Mostly Cloudy,0,2013-11-02 09:54:00
6:54 AM,55.0,46.9,74,29.68,10.0,Calm,Calm,-,N/A,,Mostly Cloudy,0,2013-11-02 10:54:00
7:54 AM,53.1,48.9,86,29.69,10.0,Calm,Calm,-,N/A,,Mostly Cloudy,0,2013-11-02 11:54:00
8:54 AM,57.0,46.9,69,29.70,10.0,Calm,Calm,-,N/A,,Mostly Cloudy,0,2013-11-02 12:54:00
9:54 AM,61.0,46.9,60,29.69,10.0,Calm,Calm,-,N/A,,Mostly Cloudy,0,2013-11-02 13:54:00
10:54 AM,63.0,46.9,56,29.68,10.0,Calm,Calm,-,N/A,,Mostly Cloudy,0,2013-11-02 14:54:00
11:54 AM,66.0,46.0,48,29.68,10.0,South,4.6,-,N/A,,Mostly Cloudy,180,2013-11-02 15:54:00
12:54 PM,68.0,41.0,37,29.68,10.0,WSW,8.1,-,N/A,,Scattered Clouds,250,2013-11-02 16:54:00
1:54 PM,66.9,43.0,42,29.66,10.0,West,8.1,-,N/A,,Scattered Clouds,260,2013-11-02 17:54:00
2:54 PM,68.0,41.0,37,29.66,10.0,WNW,13.8,-,N/A,,Mostly Cloudy,290,2013-11-02 18:54:00
3:54 PM,66.9,41.0,39,29.67,10.0,NW,13.8,-,N/A,,Mostly Cloudy,310,2013-11-02 19:54:00
4:54 PM,64.9,39.0,39,29.68,10.0,WNW,12.7,-,N/A,,Mostly Cloudy,300,2013-11-02 20:54:00
5:54 PM,64.0,41.0,43,29.71,10.0,WNW,6.9,-,N/A,,Scattered Clouds,300,2013-11-02 21:54:00
6:54 PM,62.1,37.9,41,29.74,10.0,WNW,10.4,-,N/A,,Scattered Clouds,290,2013-11-02 22:54:00
7:54 PM,60.1,37.9,44,29.77,10.0,WNW,6.9,-,N/A,,Mostly Cloudy,290,2013-11-02 23:54:00
8:54 PM,57.9,39.9,51,29.80,10.0,West,9.2,-,N/A,,Mostly Cloudy,260,2013-11-03 00:54:00
9:54 PM,57.9,39.0,49,29.81,10.0,West,8.1,-,N/A,,Mostly Cloudy,280,2013-11-03 01:54:00
10:54 PM,55.9,37.9,51,29.82,10.0,WNW,6.9,-,N/A,,Mostly Cloudy,290,2013-11-03 02:54:00
11:54 PM,55.0,37.9,53,29.83,10.0,WNW,10.4,-,N/A,,Scattered Clouds,290,2013-11-03 03:54:00